Change the Weather History Date:

Friday, November 9, 2012

  Actual Average (KGDV) Record (KGDV)
Temperature  
Mean Temperature 26 °F -  
Max Temperature 28 °F 41 °F 68 °F (2001)
Min Temperature 23 °F 20 °F 6 °F (2000)
Degree Days  
Heating Degree Days 40    
Moisture  
Dew Point 25 °F    
Average Humidity 98    
Maximum Humidity 100    
Minimum Humidity 86    
Precipitation  
Precipitation 3.45 in - - ()
Sea Level Pressure  
Sea Level Pressure 29.85 in    
Wind  
Wind Speed 20 mph (East)    
Max Wind Speed 33 mph    
Max Gust Speed 40 mph    
Visibility 4 miles    
Events Rain , Snow    
Averages and records for this station are not official NWS values.
T = Trace of Precipitation, MM = Missing Value Source: NWS Daily Summary

Daily Weather History Graph

Daily Weather History Graph

Search for Another Location

Airport or City:

Trip Planner

Search our weather history database for the weather conditions in past years. The results will help you decide how hot, cold, wet, or windy it might be!

Date:

Astronomy

Nov. 09, 2012 Rise Set
Actual Time 6:51 AM MST 4:27 PM MST
Civil Twilight 6:18 AM MST 5:00 PM MST
Nautical Twilight 5:42 AM MST 5:36 PM MST
Astronomical Twilight 5:06 AM MST 6:12 PM MST
Moon 1:35 AM MST (11/9) 1:57 PM MST (11/9)
Length of Visible Light 10h 42m
Length of Day
9h 36m
Waning Crescent, 22% of the Moon is Illuminated
Nov 9
Waning Crescent
Nov 13
New
Nov 20
First Quarter
Nov 28
Full
Dec 6
Last Quarter

Hourly Weather History & Observations

Time (MST) Temp. Windchill Dew Point Humidity Pressure Visibility Wind Dir Wind Speed Gust Speed Precip Events Conditions
12:15 AM 28.4 °F 14.7 °F 26.6 °F 93% 29.97 in 10.0 mi ESE 21.9 mph 31.1 mph N/A   Overcast
12:35 AM 28.4 °F 15.1 °F 26.6 °F 93% 29.96 in 10.0 mi ESE 20.7 mph 32.2 mph N/A   Overcast
12:55 AM 28.4 °F 16.2 °F 26.6 °F 93% 29.96 in 10.0 mi East 17.3 mph 28.8 mph N/A   Overcast
1:15 AM 28.4 °F 14.7 °F 26.6 °F 93% 29.96 in 10.0 mi ESE 21.9 mph 32.2 mph N/A   Overcast
1:35 AM 28.4 °F 14.4 °F 26.6 °F 93% 29.95 in 10.0 mi ESE 23.0 mph 31.1 mph N/A   Overcast
1:55 AM 28.4 °F 14.4 °F 26.6 °F 93% 29.95 in 10.0 mi ESE 23.0 mph 33.4 mph N/A   Overcast
2:15 AM 26.6 °F 12.0 °F 26.6 °F 100% 29.95 in 3.0 mi ESE 23.0 mph 31.1 mph N/A   Overcast
2:35 AM 26.6 °F 11.4 °F 26.6 °F 100% 29.94 in 3.0 mi ESE 25.3 mph 33.4 mph N/A   Overcast
2:55 AM 26.6 °F 11.1 °F 26.6 °F 100% 29.93 in 4.0 mi East 26.5 mph 33.4 mph N/A   Overcast
3:15 AM 26.6 °F 12.4 °F 26.6 °F 100% 29.92 in 3.0 mi East 21.9 mph 31.1 mph N/A   Overcast
3:35 AM 26.6 °F 11.4 °F 26.6 °F 100% 29.91 in 3.0 mi East 25.3 mph 31.1 mph N/A   Overcast
3:55 AM 26.6 °F 13.1 °F 26.6 °F 100% 29.91 in 3.0 mi ESE 19.6 mph 34.5 mph N/A   Overcast
4:15 AM 26.6 °F 11.7 °F 26.6 °F 100% 29.90 in 4.0 mi ESE 24.2 mph 35.7 mph N/A   Overcast
4:35 AM 26.6 °F 11.1 °F 26.6 °F 100% 29.89 in 4.0 mi ESE 26.5 mph 36.8 mph N/A   Overcast
4:55 AM 26.6 °F 10.0 °F 26.6 °F 100% 29.90 in 3.0 mi ESE 31.1 mph 35.7 mph N/A   Overcast
5:15 AM 24.8 °F 9.6 °F 24.8 °F 100% 29.89 in 3.0 mi ESE 23.0 mph 33.4 mph N/A   Overcast
5:35 AM 24.8 °F 9.3 °F 24.8 °F 100% 29.88 in 2.5 mi East 24.2 mph 35.7 mph N/A   Overcast
5:55 AM 24.8 °F 7.1 °F 24.8 °F 100% 29.87 in 3.0 mi East 33.4 mph 40.3 mph N/A   Overcast
6:35 AM 24.8 °F 9.3 °F 24.8 °F 100% 29.88 in 5.0 mi East 24.2 mph 34.5 mph N/A   Overcast
6:55 AM 24.8 °F 10.3 °F 24.8 °F 100% 29.88 in 5.0 mi East 20.7 mph 28.8 mph N/A   Overcast
7:15 AM 24.8 °F 10.0 °F 24.8 °F 100% 29.88 in 3.0 mi ESE 21.9 mph 34.5 mph N/A   Overcast
7:35 AM 24.8 °F 10.3 °F 24.8 °F 100% 29.87 in 3.0 mi ESE 20.7 mph 33.4 mph N/A   Scattered Clouds
7:55 AM 24.8 °F 9.6 °F 24.8 °F 100% 29.87 in 3.0 mi ESE 23.0 mph 32.2 mph N/A   Clear
8:15 AM 24.8 °F 10.3 °F 24.8 °F 100% 29.87 in 3.0 mi East 20.7 mph 31.1 mph N/A   Clear
8:35 AM 24.8 °F 10.3 °F 24.8 °F 100% 29.86 in 3.0 mi ESE 20.7 mph 34.5 mph N/A   Clear
8:55 AM 24.8 °F - 24.8 °F 100% 29.85 in 4.0 mi North - - N/A   Partly Cloudy
9:15 AM 24.8 °F - 24.8 °F 100% 29.85 in 4.0 mi North - - N/A   Mostly Cloudy
9:35 AM 24.8 °F - 24.8 °F 100% 29.85 in 4.0 mi North - - N/A   Mostly Cloudy
9:55 AM 26.6 °F - 24.8 °F 93% 29.86 in 3.0 mi North - - N/A   Overcast
10:15 AM 26.6 °F - 24.8 °F 93% 29.86 in 3.0 mi North - - N/A   Overcast
10:35 AM 24.8 °F - 24.8 °F 100% 29.86 in 4.0 mi North - - N/A   Overcast
10:55 AM 26.6 °F - 24.8 °F 93% 29.86 in 5.0 mi North - - N/A   Overcast
11:15 AM 26.6 °F - 24.8 °F 93% 29.85 in 3.0 mi North - - N/A   Overcast
11:35 AM 26.6 °F - 24.8 °F 93% 29.84 in 2.5 mi North - - N/A   Overcast
11:55 AM 26.6 °F - 24.8 °F 93% 29.84 in 3.0 mi North - - N/A   Overcast
12:15 PM 26.6 °F - 26.6 °F 100% 29.82 in 2.5 mi North - - N/A   Overcast
12:35 PM 26.6 °F - 26.6 °F 100% 29.82 in 2.0 mi North - - N/A   Overcast
12:55 PM 26.6 °F - 26.6 °F 100% 29.82 in 1.8 mi North - - N/A   Mostly Cloudy
1:15 PM 26.6 °F - 26.6 °F 100% 29.82 in 1.8 mi North - - N/A   Mostly Cloudy
1:35 PM 26.6 °F - 26.6 °F 100% 29.81 in 2.0 mi North - - N/A   Scattered Clouds
1:55 PM 26.6 °F - 26.6 °F 100% 29.81 in 1.8 mi North - - N/A   Mostly Cloudy
2:15 PM 26.6 °F - 26.6 °F 100% 29.81 in 2.0 mi North - - N/A   Mostly Cloudy
2:35 PM 26.6 °F - 26.6 °F 100% 29.81 in 3.0 mi North - - N/A   Scattered Clouds
2:55 PM 26.6 °F - 26.6 °F 100% 29.82 in 1.8 mi North - - N/A   Overcast
3:15 PM 26.6 °F - 26.6 °F 100% 29.81 in 1.8 mi North - - N/A   Mostly Cloudy
3:35 PM 26.6 °F - 24.8 °F 93% 29.80 in 1.8 mi North - - N/A   Mostly Cloudy
3:55 PM 26.6 °F - 24.8 °F 93% 29.79 in 3.0 mi North - - N/A   Partly Cloudy
4:15 PM 26.6 °F - 24.8 °F 93% 29.80 in 1.8 mi North - - N/A   Overcast
4:35 PM 24.8 °F - 24.8 °F 100% 29.82 in 2.5 mi North - - N/A   Overcast
4:55 PM 24.8 °F - 24.8 °F 100% 29.82 in 2.5 mi North - - 0.01 in Snow Light Snow
5:15 PM 24.8 °F - 24.8 °F 100% 29.80 in 2.5 mi North - - 0.03 in Snow Light Snow
5:35 PM 24.8 °F - 24.8 °F 100% 29.76 in 0.8 mi North - - 0.28 in Snow Light Snow
5:55 PM 24.8 °F - 24.8 °F 100% 29.75 in 0.5 mi North - - 0.43 in Snow Snow
6:15 PM 24.8 °F - 24.8 °F 100% 29.81 in 1.5 mi North - - 0.04 in Snow Light Snow
6:35 PM 24.8 °F - 24.8 °F 100% 29.86 in 1.0 mi North - - 0.28 in Snow Light Snow
6:55 PM 24.8 °F 15.3 °F 24.8 °F 100% 29.85 in 1.2 mi East 9.2 mph - 0.46 in Snow Light Snow
7:15 PM 24.8 °F 14.6 °F 24.8 °F 100% 29.84 in 1.0 mi East 10.4 mph - 0.09 in Snow Light Snow
7:35 PM 24.8 °F 15.3 °F 24.8 °F 100% 29.82 in 1.0 mi East 9.2 mph - 0.22 in Snow Light Snow
7:55 PM 24.8 °F 12.9 °F 24.8 °F 100% 29.82 in 1.2 mi East 13.8 mph - 0.35 in Snow Light Snow
8:15 PM 24.8 °F 13.4 °F 24.8 °F 100% 29.81 in 1.0 mi East 12.7 mph - 0.16 in Snow Light Snow
8:35 PM 24.8 °F 13.4 °F 24.8 °F 100% 29.80 in 4.0 mi East 12.7 mph - 0.17 in Rain Light Freezing Rain
8:55 PM 24.8 °F 15.3 °F 23.0 °F 93% 29.81 in 1.8 mi East 9.2 mph - 0.20 in Snow Light Snow
9:15 PM 24.8 °F 12.9 °F 23.0 °F 93% 29.80 in 0.2 mi East 13.8 mph - 1.13 in Snow Heavy Snow
9:35 PM 23.0 °F 11.1 °F 23.0 °F 100% 29.79 in 1.8 mi East 12.7 mph 18.4 mph 1.55 in Snow Light Snow
9:55 PM 23.0 °F 10.6 °F 23.0 °F 100% 29.78 in 3.0 mi East 13.8 mph - 1.62 in Snow Light Snow
10:15 PM 23.0 °F 11.1 °F 23.0 °F 100% 29.79 in 5.0 mi East 12.7 mph 17.3 mph 0.01 in Snow Light Snow
10:35 PM 23.0 °F 11.1 °F 21.2 °F 93% 29.80 in 9.0 mi East 12.7 mph - 0.01 in Snow Light Snow
10:55 PM 23.0 °F 11.1 °F 21.2 °F 93% 29.79 in 10.0 mi East 12.7 mph - 0.01 in Rain Light Freezing Rain
11:15 PM 23.0 °F 12.4 °F 21.2 °F 93% 29.77 in 5.0 mi ENE 10.4 mph - 0.02 in Snow Light Snow
11:35 PM 23.0 °F 10.6 °F 21.2 °F 93% 29.78 in 1.5 mi East 13.8 mph - 0.21 in Snow Light Snow
11:55 PM 23.0 °F 10.6 °F 19.4 °F 86% 29.75 in 2.0 mi ENE 13.8 mph - 0.37 in Snow Light Snow